Tracking 25995 objects as of 20-Aug-2022
HD Live streaming from Space Station
objects crossing your sky now

THOR ABLESTAR DEB

Track THOR ABLESTAR DEB now!
10-day predictions


NORAD ID: 4028
Int'l Code: 1961-015JQ
Perigee: 642.8 km
Apogee: 794.9 km
Inclination: 66.8 °
Period: 99.0 minutes
Semi major axis: 7089 km
RCS: 0.0031 m2 (small)
Launch date: June 29, 1961
Source: United States (US)
Launch site: AIR FORCE EASTERN TEST RANGE (AFETR)

Note: This is SATELLITE DEBRIS
aabbcc
Your satellite tracking list
Your tracking list is empty




NASA's NSSDC Master Catalog

Two Line Element Set (TLE):
1 04028U 61015JQ  22230.98017323  .00001445  00000-0  33787-3 0  9994
2 04028  66.7520 201.6965 0107290 346.3223  13.4984 14.54269822169911
Source of the keplerian elements: AFSPC